Location: Auckland
(36.8670°S, 174.7670°E)
Time: 20:19:29
(UTC+12:00)

Explorer 11/Cluster Stage 4 - Visible Passes

Search period start: 17 July 2019 00:00
Search period end: 27 July 2019 00:00
Orbit: 467 x 1260 km, 28.8° (Epoch: 16 July)

Date Brightness Start Highest point End Pass type
(mag) Time Alt. Az. Time Alt. Az. Time Alt. Az.
17 Jul 7.6 17:55:31 10° WNW 17:58:27 23° N 18:01:33 10° NE visible
17 Jul 8.3 19:44:04 10° NW 19:46:07 14° NNW 19:46:07 14° NNW visible
18 Jul 8.4 19:34:13 10° NW 19:35:40 12° NNW 19:36:30 11° N visible
